Regional Weather Roundup
Issued by NWS

Home | Current Version | Previous Version | Text Only | Print | Product List | Glossary Off
Versions: 1 2 3 4 5 6 7 8 9 10 11 12 13 14 15 16 17 18 19 20 21 22 23 24 25 26 27 28 29 30 31 32 33 34 35 36 37 38 39 40 41 42 43 44 45 46 47 48 49 50

000
ASUS43 KLMK 272002
RWRKY
KENTUCKY REGIONAL WEATHER ROUNDUP
NATIONAL WEATHER SERVICE LOUISVILLE KY
400 PM EDT THU AUG 27 2015

NOTE "FAIR" INDICATES FEW OR NO CLOUDS BELOW 12,000 FEET
WITH NO SIGNIFICANT WEATHER AND/OR OBSTRUCTIONS TO VISIBILITY.

KYZ001>023-026-027-061>063-070>075-272100-
WESTERN AND SOUTH CENTRAL KENTUCKY

CITY           SKY/WX    TMP DP  RH WIND       PRES   REMARKS
PADUCAH        PTSUNNY   79  58  48 NE7       30.11F
HENDERSON      PTSUNNY   79  57  47 N6        30.12S
OWENSBORO      PTSUNNY   80  58  46 NE8       30.12F
HOPKINSVILLE   MOSUNNY   80  56  43 E9        30.10S
BOWLING GREEN  MOSUNNY   82  55  39 E10G17    30.10F
GLASGOW        MOSUNNY   79  54  41 E7        30.11S
$$

KYZ024-025-028>034-038-045-046-053-272100-
NORTH CENTRAL KENTUCKY

CITY           SKY/WX    TMP DP  RH WIND       PRES   REMARKS
LOUISVILLE/SDF PTSUNNY   79  54  41 E8        30.12S
LOUISVILLE/LOU MOSUNNY   80  54  40 E8        30.13S
FORT KNOX      MOSUNNY   78  56  47 VRB3      30.12R
$$

KYZ035>037-039>044-047>052-055>060-089>105-272100-
NORTHEAST KENTUCKY

CITY           SKY/WX    TMP DP  RH WIND       PRES   REMARKS
LEXINGTON      PTSUNNY   75  53  46 NE10      30.13F
COVINGTON      PTSUNNY   74  54  49 NE9       30.14F
FRANKFORT      PTSUNNY   76  54  46 NE8       30.12F
$$

KYZ054-064>069-076>088-106>120-272100-
SOUTHEAST KENTUCKY

CITY           SKY/WX    TMP DP  RH WIND       PRES   REMARKS
JACKSON        MOSUNNY   73  55  53 VRB5      30.13F
LONDON         SUNNY     79  53  40 NE7       30.11F
SOMERSET       NOT AVBL
MIDDLESBORO    MOSUNNY   79  60  51 NE7       30.09F
MONTICELLO     CLEAR     80  58  46 NE9       30.13F
$$



USA.gov is the U.S. government's official web portal to all federal, state and local government web resources and services.